Regional Weather Roundup
Issued by NWS Burlington, VT

Current Version | Previous Version | Text Only | Print | Product List | Glossary On
Versions: 1 2 3 4 5 6 7 8 9 10 11 12 13 14 15 16 17 18 19 20 21 22 23 24 25 26 27 28 29 30 31 32 33 34 35 36 37 38 39 40 41 42 43 44 45 46 47 48 49 50
000
ASUS41 KBTV 281810
RWRBTV
VERMONT REGIONAL WEATHER ROUNDUP
NATIONAL WEATHER SERVICE BURLINGTON VT
100 PM EST FRI NOV 28 2014

NOTE: "FAIR" INDICATES FEW OR NO CLOUDS BELOW 12,000 FEET WITH NO
SIGNIFICANT WEATHER AND/OR OBSTRUCTIONS TO VISIBILITY.

* THESE REPORTS ARE NOT UNDER NWS QUALITY CONTROL AND/OR DO NOT
  REPORT WEATHER SUCH AS PRECIPITATION AND FOG.

VTZ001>019-281900-
_____VERMONT_____


CITY           SKY/WX    TMP DP  RH WIND       PRES   REMARKS
BURLINGTON     MOCLDY    28  14  55 W9        30.09F
6HR MIN TEMP:  25; 6HR MAX TEMP:  30; 6HR PCP: TRACE;

MONTPELIER     CLOUDY    22  15  75 NW8       30.06S
6HR MIN TEMP:  20; 6HR MAX TEMP:  22; 6HR PCP: TRACE;

MORRISVILLE    FLURRIES  26  16  65 CALM      30.06F
6HR MIN TEMP:  22; 6HR MAX TEMP:  26; 6HR PCP: TRACE;

ST. JOHNSBURY*   N/A     26  16  65 MISG      30.03S
6HR MIN TEMP:  24; 6HR MAX TEMP:  26; 6HR PCP:  0.01;

LYNDONVILLE*   CLOUDY    24  14  65 W12       30.02S WCI  13
6HR MIN TEMP:  22; 6HR MAX TEMP:  24;

MIDDLEBURY*    CLOUDY    27  20  74 SW5       30.09S
6HR MIN TEMP:  22; 6HR MAX TEMP:  29;

RUTLAND*       CLOUDY    27  12  54 W10G18    30.06S WCI  17
6HR MIN TEMP:  21; 6HR MAX TEMP:  28;

HIGHGATE*      FLURRIES  25  16  70 W6        30.10S
6HR MIN TEMP:  23; 6HR MAX TEMP:  27;

NEWPORT*       LGT SNOW  22  16  75 NW3       30.04S
6HR MIN TEMP:  21; 6HR MAX TEMP:  24;

BENNINGTON     FLURRIES  28  18  66 W8        30.08S
6HR MIN TEMP:  25; 6HR MAX TEMP:  28; 6HR PCP: TRACE;


_____LAKE CHAMPLAIN_____


CITY           SKY/WX    TMP DP  RH WIND       PRES   REMARKS
COLCHESTER RF*   N/A     30  18  59 NW18        N/A  WCI  18
DIAMOND ISL*     N/A     30  12  47 W15         N/A  WCI  19

$$

NYZ007-026>031-035-052-083-281900-
_____NORTHERN NEW YORK_____


CITY           SKY/WX    TMP DP  RH WIND       PRES   REMARKS
PLATTSBURGH    MOCLDY    27  13  55 W7        30.09F
6HR MIN TEMP:  24; 6HR MAX TEMP:  29; 6HR PCP: TRACE;

SARANAC LAKE   CLOUDY    18  11  74 SW8G17    30.00F
6HR MIN TEMP:  16; 6HR MAX TEMP:  19; 6HR PCP: TRACE;

MASSENA        CLOUDY    25  14  63 W10       30.14F WCI  15
6HR MIN TEMP:  19; 6HR MAX TEMP:  25; 6HR PCP: TRACE;

OGDENSBURG*    PTCLDY    28  16  59 W7        30.13S
POTSDAM*       FLURRIES  25  19  80 W7        30.12S
WATERTOWN      FLURRIES  26  15  63 NW9       30.17S
6HR MIN TEMP:  18; 6HR MAX TEMP:  27; 6HR PCP: TRACE;

FT DRUM        MOCLDY    24  15  68 VRB6      30.13S
6HR MIN TEMP:  15; 6HR MAX TEMP:  25; 6HR PCP: TRACE;

ALBANY         MOCLDY    30  17  58 W17       30.14F WCI  18
6HR MIN TEMP:  25; 6HR MAX TEMP:  31;

GLENS FALLS    CLOUDY    31  14  49 NW7       30.10F
6HR MIN TEMP:  22; 6HR MAX TEMP:  31;


$$
NHZ002-005-011-281900-
_____NEW HAMPSHIRE_____


CITY           SKY/WX    TMP DP  RH WIND       PRES   REMARKS
LEBANON        CLOUDY    30  16  56 N10       30.05S
6HR MIN TEMP:  18; 6HR MAX TEMP:  30;

KEENE          CLOUDY    30  21  69 N5        30.06S
6HR MIN TEMP:  23; 6HR MAX TEMP:  30; 6HR PCP:  0.03;

MT WASHINGTON  SNOW       1   1 100 NW39        N/A  VSB 1/16WCI -27
6HR MIN TEMP:   1; 6HR MAX TEMP:   4; 6HR PCP:  0.05;

PLYMOUTH       MOCLDY    30  21  68 W8G18     30.03F
6HR MIN TEMP:  25; 6HR MAX TEMP:  31;

WHITEFIELD     CLOUDY    24  15  68 W9        30.01S
6HR MIN TEMP:  21; 6HR MAX TEMP:  25; 6HR PCP:  0.01;


$$

_____REGIONAL QUEBEC LOCATIONS_____


CITY           SKY/WX    TMP DP  RH WIND       PRES   REMARKS
MONTREAL       MOCLDY    25  14  63 W17G23    30.10R WCI  11
QUEBEC CITY    LGT SNOW  21  18  86 VRB2      30.03F
SHERBROOKE     FLURRIES  23  18  80 W13       30.01S WCI  11

_____REGIONAL ONTARIO LOCATIONS_____


CITY           SKY/WX    TMP DP  RH WIND       PRES   REMARKS
OTTAWA         MOCLDY    23  12  63 W10G17    30.13S WCI  12

______KEY______
VSB  - VISIBILITY IN MILES
WCI  - WIND CHILL INDEX
HX   - HEAT INDEX
$$
NNNN


USA.gov is the U.S. government's official web portal to all federal, state and local government web resources and services.